Danville, IL

8:49 AM CST on December 06, 2016 (GMT -0600)
Vermilion County

Weather History for KDNV - September, 2013

Change the Weather History Date:

Tuesday, September 10, 2013

  Actual Average (KCMI) Record (KCMI)
Temperature  
Mean Temperature 83 °F 68 °F  
Max Temperature 99 °F 80 °F 98 °F (2013)
Min Temperature 67 °F 55 °F 44 °F (1999)
Degree Days  
Heating Degree Days 0 1  
Month to date heating degree days 7  
Since 1 July heating degree days 16  
Cooling Degree Days 18 4  
Month to date cooling degree days 49  
Year to date cooling degree days 876  
Growing Degree Days 33 (Base 50)    
Moisture  
Dew Point 67 °F    
Average Humidity 65    
Maximum Humidity 93    
Minimum Humidity 31    
Precipitation  
Precipitation 0.00 in 0.11 in 0.87 in (2000)
Month to date precipitation 1.25  
Year to date precipitation 28.53  
Sea Level Pressure  
Sea Level Pressure 30.03 in    
Wind  
Wind Speed 6 mph (SSW)    
Max Wind Speed 14 mph    
Max Gust Speed 18 mph    
Visibility 6 miles    
Events      
T = Trace of Precipitation, MM = Missing Value Source: NWS Daily Summary

Daily Weather History Graph

Daily Weather History Graph

Search for Another Location

Airport or City:

Trip Planner

Search our weather history database for the weather conditions in past years. The results will help you decide how hot, cold, wet, or windy it might be!

Date:

Astronomy

Sep. 10, 2013 Rise Set
Actual Time 6:26 AM CDT 7:07 PM CDT
Civil Twilight 5:59 AM CDT 7:34 PM CDT
Nautical Twilight 5:26 AM CDT 8:06 PM CDT
Astronomical Twilight 4:53 AM CDT 8:40 PM CDT
Moon 11:52 AM CDT (9/10) 10:09 PM CDT (9/10)
Length of Visible Light 13h 35m
Length of Day
12h 40m
Waxing Crescent, 28% of the Moon is Illuminated
Sep 10
Waxing Crescent
Sep 12
First Quarter
Sep 19
Full
Sep 26
Last Quarter
Oct 4
New

Hourly Weather History & Observations

Time (CDT) Temp. Heat Index Dew Point Humidity Pressure Visibility Wind Dir Wind Speed Gust Speed Precip Events Conditions
12:15 AM 76.5 °F - 68.9 °F 77% 29.95 in 10.0 mi SSW 9.2 mph - N/A   Clear
12:35 AM 76.6 °F - 68.9 °F 77% 29.95 in 10.0 mi SW 6.9 mph - N/A   Clear
12:55 AM 76.5 °F - 68.7 °F 77% 29.95 in 10.0 mi SSW 6.9 mph - N/A   Clear
1:15 AM 76.1 °F - 68.7 °F 78% 29.96 in 10.0 mi SW 6.9 mph - N/A   Clear
1:35 AM 75.6 °F - 68.7 °F 79% 29.96 in 10.0 mi SW 6.9 mph - N/A   Clear
1:55 AM 75.2 °F - 68.2 °F 79% 29.96 in 10.0 mi SW 6.9 mph - N/A   Clear
2:15 AM 74.7 °F - 68.5 °F 81% 29.96 in 7.0 mi SW 5.8 mph - N/A   Clear
2:35 AM 73.8 °F - 68.0 °F 82% 29.97 in 7.0 mi SW 4.6 mph - N/A   Clear
2:55 AM 72.9 °F - 67.6 °F 84% 29.97 in 7.0 mi SSW 4.6 mph - N/A   Clear
3:15 AM 72.0 °F - 67.5 °F 86% 29.98 in 7.0 mi SSW 5.8 mph - N/A   Clear
3:35 AM 71.6 °F - 67.3 °F 86% 29.98 in 7.0 mi SSW 4.6 mph - N/A   Clear
3:55 AM 71.2 °F - 67.5 °F 88% 29.98 in 5.0 mi SW 4.6 mph - N/A   Clear
4:15 AM 70.7 °F - 66.9 °F 88% 29.98 in 5.0 mi SSW 3.5 mph - N/A   Clear
4:35 AM 70.2 °F - 67.1 °F 90% 29.99 in 5.0 mi SSW 4.6 mph - N/A   Clear
4:55 AM 70.2 °F - 67.3 °F 91% 30.00 in 5.0 mi SSW 4.6 mph - N/A   Clear
5:15 AM 70.2 °F - 67.3 °F 91% 30.00 in 4.0 mi SW 3.5 mph - N/A   Clear
5:35 AM 69.8 °F - 66.9 °F 91% 30.01 in 5.0 mi Calm Calm - N/A   Clear
5:55 AM 68.9 °F - 66.0 °F 90% 30.01 in 4.0 mi Calm Calm - N/A   Clear
6:15 AM 68.2 °F - 65.5 °F 91% 30.02 in 4.0 mi Calm Calm - N/A   Clear
6:35 AM 67.6 °F - 64.9 °F 91% 30.03 in 2.5 mi Calm Calm - N/A   Clear
6:55 AM 68.0 °F - 65.7 °F 92% 30.04 in 2.5 mi South 3.5 mph - N/A   Clear
7:15 AM 69.1 °F - 66.7 °F 92% 30.04 in 3.0 mi South 4.6 mph - N/A   Clear
7:35 AM 70.7 °F - 68.5 °F 93% 30.05 in 3.0 mi South 3.5 mph - N/A   Clear
7:55 AM 72.3 °F - 70.2 °F 93% 30.05 in 3.0 mi South 3.5 mph - N/A   Clear
8:15 AM 74.8 °F - 71.6 °F 90% 30.05 in 4.0 mi SSW 3.5 mph - N/A   Clear
8:35 AM 77.0 °F - 71.1 °F 82% 30.06 in 5.0 mi SW 4.6 mph - N/A   Haze
8:55 AM 79.3 °F - 70.9 °F 75% 30.06 in 5.0 mi SSW 3.5 mph - N/A   Haze
9:15 AM 81.5 °F 85.3 °F 70.5 °F 69% 30.06 in 5.0 mi SSW 4.6 mph - N/A   Haze
9:35 AM 83.5 °F 88.0 °F 70.7 °F 65% 30.06 in 5.0 mi SW 4.6 mph - N/A   Haze
9:55 AM 85.6 °F 90.1 °F 70.0 °F 59% 30.06 in 5.0 mi SW 4.6 mph - N/A   Haze
10:15 AM 87.4 °F 92.3 °F 69.8 °F 56% 30.06 in 10.0 mi SW 3.5 mph - N/A   Clear
10:35 AM 89.6 °F 94.3 °F 69.4 °F 51% 30.07 in 5.0 mi SSW 5.8 mph - N/A   Haze
10:55 AM 90.9 °F 95.3 °F 68.9 °F 48% 30.06 in 5.0 mi SSW 6.9 mph - N/A   Haze
11:15 AM 92.5 °F 96.9 °F 68.0 °F 45% 30.06 in 7.0 mi SSW 5.8 mph - N/A   Clear
11:35 AM 93.7 °F 98.8 °F 68.5 °F 44% 30.05 in 7.0 mi SW 9.2 mph - N/A   Clear
11:55 AM 94.6 °F 98.3 °F 67.1 °F 40% 30.06 in 7.0 mi SW 6.9 mph - N/A   Clear
12:15 PM 95.0 °F 99.5 °F 68.2 °F 41% 30.05 in 7.0 mi WSW 5.8 mph - N/A   Clear
12:35 PM 96.3 °F 100.2 °F 66.6 °F 38% 30.05 in 7.0 mi SW 8.1 mph - N/A   Clear
12:55 PM 96.8 °F 100.7 °F 66.4 °F 37% 30.05 in 7.0 mi West 4.6 mph - N/A   Clear
1:15 PM 96.8 °F 100.7 °F 66.4 °F 37% 30.05 in 7.0 mi SW 6.9 mph - N/A   Clear
1:35 PM 98.1 °F 101.2 °F 65.7 °F 34% 30.05 in 7.0 mi SW 9.2 mph - N/A   Clear
1:55 PM 98.6 °F 102.2 °F 65.5 °F 34% 30.04 in 7.0 mi WSW 6.9 mph - N/A   Clear
2:15 PM 97.3 °F 100.0 °F 64.8 °F 34% 30.03 in 5.0 mi WSW 6.9 mph - N/A   Haze
2:35 PM 98.6 °F 101.6 °F 65.1 °F 33% 30.02 in 7.0 mi SW 8.1 mph - N/A   Clear
2:55 PM 99.1 °F 102.0 °F 64.4 °F 32% 30.02 in 7.0 mi SW 5.8 mph - N/A   Clear
3:15 PM 96.6 °F 98.7 °F 63.7 °F 34% 30.01 in 5.0 mi WSW 6.9 mph - N/A   Haze
3:35 PM 97.7 °F 100.0 °F 63.7 °F 33% 30.00 in 7.0 mi SW 9.2 mph - N/A   Scattered Clouds
3:55 PM 97.7 °F 99.5 °F 63.5 °F 32% 30.00 in 7.0 mi WSW 9.2 mph - N/A   Clear
4:15 PM 97.0 °F 97.8 °F 61.5 °F 31% 30.00 in 7.0 mi SW 4.6 mph 17.3 mph N/A   Clear
4:35 PM 97.2 °F 98.1 °F 62.2 °F 31% 30.00 in 7.0 mi SW 9.2 mph 16.1 mph N/A   Clear
4:55 PM 95.5 °F 96.5 °F 62.1 °F 33% 30.00 in 7.0 mi SW 9.2 mph - N/A   Scattered Clouds
5:15 PM 95.4 °F 96.6 °F 63.0 °F 34% 30.00 in 7.0 mi SSW 8.1 mph - N/A   Scattered Clouds
5:35 PM 95.0 °F 96.0 °F 63.0 °F 34% 30.01 in 7.0 mi WSW 9.2 mph - N/A   Scattered Clouds
5:55 PM 94.1 °F 95.0 °F 62.8 °F 35% 30.02 in 7.0 mi South 13.8 mph 18.4 mph N/A   Scattered Clouds
6:15 PM 88.7 °F 90.8 °F 65.3 °F 46% 30.03 in 5.0 mi South 9.2 mph - N/A   Haze
6:35 PM 86.2 °F 88.4 °F 66.2 °F 51% 30.03 in 7.0 mi SSW 6.9 mph - N/A   Clear
6:55 PM 84.0 °F 86.3 °F 66.0 °F 55% 30.05 in 5.0 mi South 6.9 mph - N/A   Haze
7:15 PM 82.6 °F 84.5 °F 65.7 °F 56% 30.05 in 5.0 mi South 9.2 mph - N/A   Haze
7:35 PM 81.1 °F 83.1 °F 65.7 °F 59% 30.05 in 7.0 mi South 6.9 mph - N/A   Clear
7:55 PM 79.5 °F - 66.0 °F 63% 30.05 in 7.0 mi SSW 6.9 mph - N/A   Clear
8:15 PM 78.4 °F - 65.5 °F 64% 30.06 in 7.0 mi South 6.9 mph - N/A   Clear
8:35 PM 77.4 °F - 66.2 °F 68% 30.06 in 7.0 mi South 6.9 mph - N/A   Clear
8:55 PM 76.5 °F - 66.0 °F 70% 30.07 in 10.0 mi South 5.8 mph - N/A   Clear
9:15 PM 75.6 °F - 65.7 °F 71% 30.07 in 10.0 mi South 4.6 mph - N/A   Clear
9:35 PM 74.7 °F - 66.4 °F 75% 30.07 in 10.0 mi SSW 3.5 mph - N/A   Clear
9:55 PM 74.5 °F - 66.9 °F 77% 30.07 in 7.0 mi SSW 4.6 mph - N/A   Clear
10:15 PM 74.7 °F - 67.3 °F 78% 30.07 in 7.0 mi South 5.8 mph - N/A   Clear
10:35 PM 74.7 °F - 67.8 °F 79% 30.07 in 7.0 mi SSW 5.8 mph - N/A   Clear
10:55 PM 74.7 °F - 68.0 °F 80% 30.07 in 7.0 mi SSW 5.8 mph - N/A   Clear
11:15 PM 74.3 °F - 68.0 °F 81% 30.07 in 7.0 mi SSW 8.1 mph - N/A   Clear
11:35 PM 73.9 °F - 68.0 °F 82% 30.07 in 7.0 mi SSW 8.1 mph - N/A   Clear
11:55 PM 74.3 °F - 68.4 °F 82% 30.06 in 7.0 mi SSW 8.1 mph - N/A   Clear